Terminal Aerodrome Forecast
Issued by NWS

Home | Current Version | Previous Version | Graphics & Text | Print | Product List | Glossary On
Versions: 1 2 3 4 5 6 7 8 9 10 11 12 13 14
641
FTUS43 KIWX 270534
TAFSBN
TAF
KSBN 270534Z 2706/2806 20007KT P6SM BKN250
      TEMPO 2710/2714 5SM BR BKN020
     FM271500 21012KT P6SM SCT035 BKN100
     FM271700 21012G18KT P6SM VCSH SCT050 BKN150
     FM280300 18008KT P6SM BKN100=

USA.gov is the U.S. government's official web portal to all federal, state and local government web resources and services.